Location: Alpha Ridge Park
(39.3209°N, 76.9128°W)
Time: 01:57:35
(UTC-04:00)

S-56A Canister/Altair - Pass Details

Date: 25 May 2019
Orbit: 633 x 2499 km, 38.9° (Epoch: 18 June)

Event Time Altitude Azimuth Distance (km) Brightness Sun altitude
Rises 03:05:40 0° 256° (WSW) 3,383 - -23.4°
Reaches altitude 10° 03:07:48 10° 256° (WSW) 2,606 - -23.2°
Exits shadow 03:10:52 35° 252° (WSW) 1,624 8.8 -22.9°
Maximum altitude 03:14:03 82° 170° (S) 1,208 8.3 -22.6°
Drops below altitude 10° 03:23:45 10° 84° (E) 3,938 11.7 -21.5°
Sets 03:27:40 0° 84° (E) 5,225 12.4 -21.1°
